Location: Sondrio
(46.1670°N, 9.8670°E)
Time: 08:21:30
(UTC+02:00)

ISS - Visible Passes

Search period start: 08 May 2021 00:00
Search period end: 18 May 2021 00:00
Orbit: 418 x 421 km, 51.6° (Epoch: 08 May)

Date Brightness Start Highest point End Pass type
(mag) Time Alt. Az. Time Alt. Az. Time Alt. Az.
08 May -2.7 02:49:24 44° N 02:49:24 44° N 02:52:15 10° ENE visible
08 May -2.0 04:23:11 10° WNW 04:26:14 31° N 04:29:18 10° ENE visible
09 May -1.5 02:03:26 22° NE 02:03:26 22° NE 02:04:51 10° ENE visible
09 May -2.0 03:36:23 15° WNW 03:38:40 31° N 03:41:44 10° ENE visible
09 May -2.5 05:12:43 10° WNW 05:15:59 43° NNE 05:19:15 10° E visible
10 May -2.2 02:50:23 30° NW 02:51:06 34° N 02:54:14 10° ENE visible
10 May -2.2 04:25:17 10° WNW 04:28:27 36° NNE 04:31:37 10° E visible
11 May -2.0 02:04:21 33° NNE 02:04:21 33° NNE 02:06:46 10° ENE visible
11 May -2.0 03:37:48 10° WNW 03:40:54 32° N 03:44:00 10° ENE visible
11 May -3.6 05:14:39 10° WNW 05:18:03 79° NNE 05:21:25 10° ESE visible
12 May -1.2 01:18:17 18° NE 01:18:17 18° NE 01:19:20 10° ENE visible
12 May -1.9 02:51:12 16° NW 02:53:20 31° N 02:56:23 10° ENE visible
12 May -3.0 04:27:14 10° WNW 04:30:35 56° NNE 04:33:54 10° ESE visible
13 May -1.9 02:05:02 28° NNW 02:05:45 31° N 02:08:49 10° ENE visible
13 May -2.5 03:39:49 10° WNW 03:43:04 43° NNE 03:46:20 10° E visible
13 May -3.4 05:16:40 10° WNW 05:19:55 45° SW 05:23:10 10° SE visible
14 May -1.9 01:18:38 32° N 01:18:38 32° N 01:21:18 10° ENE visible
14 May -2.2 02:52:22 10° WNW 02:55:32 36° NNE 02:58:42 10° E visible
14 May -3.9 04:29:10 10° WNW 04:32:32 71° SSW 04:35:54 10° SE visible
14 May -3.8 22:50:23 10° SW 22:53:41 58° SSE 22:55:41 22° ENE visible
15 May -2.3 00:27:26 10° W 00:30:38 38° NNW 00:33:50 10° ENE visible
15 May -1.9 02:04:53 10° WNW 02:07:58 32° N 02:11:04 10° ENE visible
15 May -3.7 03:41:44 10° WNW 03:45:06 79° NNE 03:48:30 10° ESE visible
15 May -3.3 22:03:12 10° SSW 22:06:19 37° SE 22:09:29 10° ENE visible
15 May -2.8 23:39:49 10° W 23:43:06 48° NNW 23:46:24 10° ENE visible
16 May -1.8 01:17:20 10° WNW 01:20:23 31° N 01:23:27 10° ENE visible
16 May -3.1 02:54:18 10° WNW 02:57:38 57° NNE 03:00:59 10° ESE visible
16 May -2.9 04:31:21 10° W 04:34:18 29° SW 04:37:16 10° SSE visible
16 May -3.4 22:52:16 10° WSW 22:55:36 64° NNW 22:58:58 10° ENE visible
17 May -1.8 00:29:45 10° WNW 00:32:49 31° N 00:35:53 10° ENE visible
17 May -2.6 02:06:52 10° WNW 02:10:08 43° NNE 02:13:23 10° E visible
17 May -3.5 03:43:44 10° WNW 03:46:58 45° SW 03:50:12 10° SE visible
17 May -3.8 22:04:47 10° WSW 22:08:09 89° SSE 22:11:32 10° ENE visible
17 May -2.0 23:42:08 10° WNW 23:45:14 33° N 23:48:21 10° ENE visible
